Date String (YYYY-MM-DD hh:mm:ss) UTC,Instrument flags,absolute air pressure of the measurement (hPa),sample flow rate (lpm),inlet stack bypass flow (lpm),air temperature of the measurement (°C),ambient temperature measured by the external sensor (°C),aerosol sample conditioner tube jacket temperature (°C),OPC LED temperature (°C),internal box temperature (°C),relative humidity of the measurement (%),span deviation,mass concentration of particles derived from Lorenz-Mie calculation of OPC scattering (μg/m³),mass concentration of particles derived from Lorenz-Mie calculation of OPC scattering (μg/m³),mass concentration of particles derived from Lorenz-Mie calculation of OPC scattering (μg/m³)
DateTimeUTC,F1_M11,P_M11,Q1_M11,Q2_M11,T1_M11,T2_M11,T3_M11,T4_M11,T5_M11,U1_M11,ZSPAN_M11,X0_M11,X2_M11,X1_M11
2023-06-11 11:00:00,SystemResetWarning,0832.1,5.00,000.00,029.6,027.9,000.0,038.2,031.0,26.2,0000.0,0007.33,0003.92,0003.35
2023-06-11 11:01:00,SystemResetWarning,0832.1,5.00,000.00,029.6,027.9,000.0,038.1,031.0,26.2,0000.0,0007.45,0003.96,0003.35
2023-06-11 11:02:00,SystemResetWarning,0832.1,5.00,000.00,029.6,027.9,000.0,038.1,031.0,26.3,0000.0,0007.84,0003.95,0003.35
2023-06-11 11:03:00,SystemResetWarning,0832.0,5.00,000.00,029.6,027.9,000.0,038.1,031.0,26.2,0000.0,0007.96,0003.96,0003.36
2023-06-11 11:04:00,SystemResetWarning,0832.1,5.00,000.00,029.6,027.9,000.0,038.2,031.0,26.2,0000.0,0007.82,0003.95,0003.37
2023-06-11 11:05:00,SystemResetWarning,0832.1,5.00,000.00,029.6,027.9,000.0,038.1,031.0,26.2,0000.0,0007.77,0003.94,0003.38
2023-06-11 11:06:00,SystemResetWarning,0832.1,5.00,000.00,029.6,027.9,000.0,038.1,031.0,26.3,0000.0,0007.70,0003.94,0003.40
2023-06-11 11:07:00,SystemResetWarning,0832.2,5.00,000.00,029.6,027.9,000.0,038.2,031.0,26.2,0000.0,0007.62,0003.92,0003.40
2023-06-11 11:08:00,SystemResetWarning,0832.2,5.00,000.00,029.6,027.9,000.0,038.1,031.0,26.3,0000.0,0007.51,0003.89,0003.40
2023-06-11 11:09:00,SystemResetWarning,0832.2,5.00,000.00,029.6,027.9,000.0,038.1,031.0,26.2,0000.0,0007.49,0003.89,0003.40
2023-06-11 11:10:00,SystemResetWarning,0832.2,5.00,000.00,029.6,027.8,000.0,038.1,030.9,26.2,0000.0,0007.58,0003.91,0003.40
2023-06-11 11:11:00,SystemResetWarning,0832.2,5.00,000.00,029.5,027.8,000.0,038.1,031.0,26.4,0000.0,0007.58,0003.93,0003.41
2023-06-11 11:12:00,SystemResetWarning,0832.2,5.00,000.00,029.5,027.8,000.0,038.1,031.0,26.4,0000.0,0007.61,0003.93,0003.41
2023-06-11 11:13:00,SystemResetWarning,0832.1,5.00,000.00,029.5,027.8,000.0,038.1,030.9,26.3,0000.0,0007.05,0003.91,0003.42
2023-06-11 11:14:00,SystemResetWarning,0832.2,5.00,000.00,029.5,027.8,000.0,038.1,031.0,26.2,0000.0,0006.68,0003.91,0003.41
2023-06-11 11:15:00,SystemResetWarning,0832.2,5.00,000.00,029.5,027.8,000.0,038.1,031.0,26.2,0000.0,0006.68,0003.91,0003.41
2023-06-11 11:16:00,SystemResetWarning,0832.2,5.00,000.00,029.5,027.8,000.0,038.1,031.0,26.3,0000.0,0006.83,0003.87,0003.40
2023-06-11 11:17:00,SystemResetWarning,0832.2,5.00,000.00,029.5,027.8,000.0,038.1,030.9,26.2,0000.0,0008.50,0003.87,0003.38
2023-06-11 11:18:00,SystemResetWarning,0832.2,5.01,000.00,029.5,027.8,000.0,038.1,030.9,26.2,0000.0,0008.83,0003.87,0003.37
2023-06-11 11:19:00,SystemResetWarning,0832.2,5.00,000.00,029.5,027.8,000.0,038.1,030.9,26.2,0000.0,0009.06,0003.90,0003.37
2023-06-11 11:20:00,SystemResetWarning,0832.1,5.00,000.00,029.5,027.8,000.0,038.1,030.9,26.3,0000.0,0009.24,0003.89,0003.36
2023-06-11 11:21:00,SystemResetWarning,0832.2,5.00,000.00,029.5,027.7,000.0,038.1,030.9,26.2,0000.0,0009.20,0003.89,0003.34
2023-06-11 11:22:00,SystemResetWarning,0832.2,5.00,000.00,029.5,027.7,000.0,038.1,030.9,26.2,0000.0,0009.14,0003.86,0003.34
2023-06-11 11:23:00,SystemResetWarning,0832.2,4.99,000.00,029.5,027.7,000.0,038.1,030.9,26.2,0000.0,0009.06,0003.81,0003.33
2023-06-11 11:24:00,SystemResetWarning,0832.2,5.00,000.00,029.5,027.8,000.0,038.1,030.9,26.1,0000.0,0009.13,0003.83,0003.32
2023-06-11 11:25:00,SystemResetWarning,0832.3,5.00,000.00,029.5,027.8,000.0,038.1,031.0,26.1,0000.0,0009.15,0003.83,0003.32
2023-06-11 11:26:00,SystemResetWarning,0832.3,5.01,000.00,029.5,027.8,000.0,038.1,031.0,26.0,0000.0,0009.20,0003.82,0003.31
2023-06-11 11:27:00,SystemResetWarning,0832.3,5.01,000.00,029.5,027.8,000.0,038.0,031.0,25.9,0000.0,0009.08,0003.86,0003.31
2023-06-11 11:28:00,SystemResetWarning,0832.3,5.00,000.00,029.5,027.8,000.0,038.1,030.9,25.8,0000.0,0007.65,0003.85,0003.30
2023-06-11 11:29:00,SystemResetWarning,0832.3,5.00,000.00,029.5,027.8,000.0,038.1,031.0,25.8,0000.0,0007.48,0003.85,0003.28
2023-06-11 11:30:00,SystemResetWarning,0832.3,5.00,000.00,029.5,027.8,000.0,038.0,031.0,25.7,0000.0,0007.58,0003.80,0003.25
2023-06-11 11:31:00,SystemResetWarning,0832.3,5.00,000.00,029.5,027.8,000.0,038.1,031.0,25.7,0000.0,0007.57,0003.76,0003.23
2023-06-11 11:32:00,SystemResetWarning,0832.4,4.99,000.00,029.5,027.8,000.0,038.1,031.0,25.7,0000.0,0007.43,0003.71,0003.22
2023-06-11 11:33:00,SystemResetWarning,0832.4,5.00,000.00,029.5,027.8,000.0,038.1,031.0,25.6,0000.0,0007.48,0003.70,0003.19
2023-06-11 11:34:00,SystemResetWarning,0832.4,5.00,000.00,029.5,027.8,000.0,038.1,031.0,25.5,0000.0,0007.48,0003.68,0003.15
2023-06-11 11:35:00,SystemResetWarning,0832.4,5.00,000.00,029.5,027.8,000.0,038.0,031.0,25.4,0000.0,0007.44,0003.63,0003.11
2023-06-11 11:36:00,SystemResetWarning,0832.4,5.00,000.00,029.5,027.8,000.0,038.0,031.0,25.5,0000.0,0007.35,0003.58,0003.04
2023-06-11 11:37:00,SystemResetWarning,0832.4,5.00,000.00,029.5,027.8,000.0,038.0,030.9,25.5,0000.0,0007.20,0003.54,0002.99
2023-06-11 11:38:00,SystemResetWarning,0832.4,5.00,000.00,029.5,027.8,000.0,038.0,031.0,25.7,0000.0,0007.07,0003.50,0002.97
2023-06-11 11:39:00,SystemResetWarning,0832.4,5.00,000.00,029.5,027.8,000.0,038.0,030.9,25.7,0000.0,0007.81,0003.51,0002.98
2023-06-11 11:40:00,SystemResetWarning,0832.4,5.00,000.00,029.5,027.8,000.0,038.0,030.9,25.6,0000.0,0008.49,0003.54,0003.01
2023-06-11 11:41:00,SystemResetWarning,0832.4,5.00,000.00,029.5,027.8,000.0,038.0,030.9,25.6,0000.0,0008.23,0003.55,0003.01
2023-06-11 11:42:00,SystemResetWarning,0832.4,5.00,000.00,029.5,027.8,000.0,038.0,030.9,25.6,0000.0,0008.01,0003.58,0003.03
2023-06-11 11:43:00,SystemResetWarning,0832.4,4.99,000.00,029.5,027.8,000.0,038.0,031.0,25.5,0000.0,0008.00,0003.58,0003.04
2023-06-11 11:44:00,SystemResetWarning,0832.4,4.99,000.00,029.5,027.8,000.0,038.0,031.0,25.5,0000.0,0007.98,0003.58,0003.05
2023-06-11 11:45:00,SystemResetWarning,0832.5,5.00,000.00,029.5,027.8,000.0,038.0,031.0,25.4,0000.0,0007.99,0003.61,0003.07
2023-06-11 11:46:00,SystemResetWarning,0832.5,5.00,000.00,029.5,027.8,000.0,038.0,031.0,25.4,0000.0,0007.93,0003.61,0003.09
2023-06-11 11:47:00,SystemResetWarning,0832.5,5.00,000.00,029.5,027.8,000.0,038.0,030.9,25.4,0000.0,0007.92,0003.62,0003.09
2023-06-11 11:48:00,SystemResetWarning,0832.5,5.01,000.00,029.5,027.8,000.0,038.0,030.9,25.3,0000.0,0007.88,0003.59,0003.07
2023-06-11 11:49:00,SystemResetWarning,0832.5,5.00,000.00,029.5,027.8,000.0,038.0,030.9,25.2,0000.0,0007.77,0003.55,0003.02
2023-06-11 11:50:00,SystemResetWarning,0832.5,5.00,000.00,029.5,027.8,000.0,038.0,030.9,25.2,0000.0,0006.90,0003.50,0002.96
2023-06-11 11:51:00,SystemResetWarning,0832.5,5.00,000.00,029.5,027.8,000.0,038.0,031.0,25.1,0000.0,0005.53,0003.42,0002.88
2023-06-11 11:52:00,SystemResetWarning,0832.5,5.00,000.00,029.5,027.8,000.0,038.0,031.0,25.1,0000.0,0005.87,0003.38,0002.83
2023-06-11 11:53:00,SystemResetWarning,0832.5,5.00,000.00,029.5,027.8,000.0,038.0,030.9,25.2,0000.0,0005.99,0003.34,0002.79
2023-06-11 11:54:00,SystemResetWarning,0832.5,4.99,000.00,029.5,027.8,000.0,038.0,030.9,25.1,0000.0,0006.12,0003.31,0002.72
2023-06-11 11:55:00,SystemResetWarning,0832.5,5.00,000.00,029.5,027.8,000.0,038.0,030.9,25.1,0000.0,0006.39,0003.30,0002.67
2023-06-11 11:56:00,SystemResetWarning,0832.5,5.00,000.00,029.5,027.8,000.0,038.0,030.9,25.1,0000.0,0006.35,0003.26,0002.62
2023-06-11 11:57:00,SystemResetWarning,0832.5,5.00,000.00,029.5,027.8,000.0,038.0,030.9,25.1,0000.0,0006.39,0003.23,0002.59
2023-06-11 11:58:00,SystemResetWarning,0832.6,5.01,000.00,029.5,027.8,000.0,038.0,031.0,25.1,0000.0,0007.35,0003.20,0002.59
2023-06-11 11:59:00,SystemResetWarning,0832.6,5.00,000.00,029.5,027.8,000.0,038.0,031.0,25.1,0000.0,0007.79,0003.22,0002.59
